Terug naar catalogus

STARLINK-32878

ActiefCommunicatieVLEO
NORAD 62892·PAYLOAD·🇺🇸 United States

Gelanceerd Feb 4, 2025 vanaf Cape Canaveral Space Force Station

Loading…

Volgende Passages (komende 24 uur)

TLE

VersSource: CelesTrak SupGP

Epoch: Sep 14, 2026, 21:45 UTC

1 62892C 25024P   26257.90673611 -.00024861  00000+0 -90041-3 0  2571
2 62892  43.0019 336.9016 0001581 275.2322  51.2429 15.27592755    14

Volg STARLINK-32878 in realtime met AllMySat

Download on the App Store